Location: Austin
(30.3000°N, 97.7500°W)
Time: 11:45:44
(UTC-05:00)

YAOGAN 1 - Pass Details

Date: 05 September 2024
Orbit: 610 x 612 km, 97.8° (Epoch: 10 September)

Event Time Altitude Azimuth Distance (km) Brightness Sun altitude
Rises 20:13:49 0° 164° (SSE) 2,859 5.7 -6.3°
Reaches altitude 10° 20:15:59 10° 162° (SSE) 1,958 4.9 -6.8°
Maximum altitude 20:20:14 77° 78° (ENE) 631 2.5 -7.7°
Drops below altitude 10° 20:24:31 10° 352° (N) 1,968 5.4 -8.6°
Sets 20:26:42 0° 351° (N) 2,876 6.3 -9.0°
